Regional Weather Roundup
Issued by NWS Sioux Falls, SD

Home | Current Version | Previous Version | Graphics & Text | Print | Product List | Glossary On
Versions: 1 2 3 4 5 6 7 8 9 10 11 12 13 14 15 16 17 18 19 20 21 22 23 24 25 26 27 28 29 30 31 32 33 34 35 36 37 38 39 40 41 42 43 44 45 46 47 48 49 50
000
ASUS43 KFSD 012202
RWRFSD

WEATHER ROUNDUP FOR SE SOUTH DAKOTA/SW MINNESOTA/NW IOWA
NATIONAL WEATHER SERVICE SIOUX FALLS SD
400 PM CST SUN MAR 01 2015

NOTE: "FAIR" INDICATES FEW OR NO CLOUDS BELOW 12,000 FEET WITH NO
SIGNIFICANT WEATHER AND OR OBSTRUCTIONS TO VISIBILITY.


SDZ038>040-050-052>070-012300-
SOUTHEAST SOUTH DAKOTA

CITY           SKY/WX    TMP DP  RH WIND       PRES   REMARKS
CHAMBERLAIN    NOT AVBL
HURON          CLOUDY    29  18  63 NW21G26   30.32R WCI  16
MADISON        MOCLDY    27  18  69 NW21G28   30.28R WCI  13
MITCHELL       CLOUDY    34  11  38 NW24      30.32S WCI  21
SIOUX FALLS    PTSUNNY   32  15  49 NW16      30.29R WCI  21
WINNER         CLOUDY    34   5  29 NW16G28   30.30R WCI  24
YANKTON        SUNNY    N/A N/A N/A NW25      30.31F
$$

MNZ071-072-080-081-089-090-097-098-012300-
SOUTHWEST MINNESOTA

CITY           SKY/WX    TMP DP  RH WIND       PRES   REMARKS
FAIRMONT       SUNNY     28  12  50 W14       30.26F WCI  17
JACKSON        SUNNY     30  12  47 W21       30.27S WCI  17
LUVERNE        PTSUNNY   32  18  55 NW18G24   30.29S WCI  20
MARSHALL       PTSUNNY   28  12  50 NW24      30.28R WCI  14
MONTEVIDEO     CLOUDY    32  18  55 NW12      30.26S WCI  23
PIPESTONE      CLOUDY    28  16  59 NW21G28   30.25S WCI  15
REDWOOD FALLS  CLOUDY    30  14  51 NW20G31   30.25S WCI  17
TRACY          MOSUNNY   30  16  55 W15G26    30.26S WCI  19
WINDOM         MOSUNNY   28  16  59 W23G31    30.26S WCI  14
WORTHINGTON    SUNNY     34  12  40 W17G28    30.29R WCI  23
$$

IAZ001>003-012>014-020>022-031-032-NEZ013-014-SDZ071-012300-
NORTHWEST IOWA

CITY           SKY/WX    TMP DP  RH WIND       PRES   REMARKS
DENISON        SUNNY     30  16  55 W5G12     30.33R WCI  25
ESTHERVILLE    SUNNY     28  18  66 W16       30.28S WCI  16
LE MARS        SUNNY     36  14  41 NW12G22   30.32S
ORANGE CITY    SUNNY     36  14  41 NW17G26   30.29S
SIOUX CITY     PTSUNNY   39  15  37 NW15      30.33S
SPENCER        MOSUNNY   32  16  51 NW18      30.29S WCI  20
$$

ABBREVIATIONS USED IN REMARKS
   TC - TEMPERATURE IN CELSIUS
  WCI - WIND CHILL INDEX
   HX - HEAT INDEX
  VSB - VISIBILITY




USA.gov is the U.S. government's official web portal to all federal, state and local government web resources and services.